Time,TemperatureF,DewpointF,PressureIn,WindDirection,WindDirectionDegrees,WindSpeedMPH,WindSpeedGustMPH,Humidity,HourlyPrecipIn,Conditions,Clouds,dailyrainin,SoftwareType,DateUTC
2013-06-05 00:01:00,70.7,66.7,30.08,East,80,5.0,7.0,87,0.00,,---,0.00,VWS V14.01,2013-06-05 04:01:00,
2013-06-05 00:06:00,70.7,66.7,30.08,East,80,13.0,13.0,87,0.00,,---,0.00,VWS V14.01,2013-06-05 04:06:00,
2013-06-05 00:11:00,70.7,66.7,30.07,East,86,8.0,11.0,87,0.00,,---,0.00,VWS V14.01,2013-06-05 04:11:00,
2013-06-05 00:16:00,70.7,66.7,30.07,East,100,10.0,10.0,87,0.00,,---,0.00,VWS V14.01,2013-06-05 04:16:00,
2013-06-05 00:21:00,70.7,66.7,30.07,East,83,9.0,10.0,87,0.00,,---,0.00,VWS V14.01,2013-06-05 04:21:00,
2013-06-05 00:26:00,70.6,66.6,30.07,East,90,10.0,14.0,87,0.00,,---,0.00,VWS V14.01,2013-06-05 04:26:00,
2013-06-05 00:31:00,70.7,66.7,30.07,East,94,10.0,13.0,87,0.00,,---,0.00,VWS V14.01,2013-06-05 04:31:00,
2013-06-05 00:36:00,70.7,66.7,30.07,East,91,13.0,13.0,87,0.00,,---,0.00,VWS V14.01,2013-06-05 04:36:00,
2013-06-05 00:41:00,70.8,66.7,30.06,East,92,9.0,10.0,87,0.00,,---,0.00,VWS V14.01,2013-06-05 04:41:00,
2013-06-05 00:46:00,70.9,66.8,30.06,East,90,11.0,13.0,87,0.00,,---,0.00,VWS V14.01,2013-06-05 04:46:00,
2013-06-05 00:51:00,70.8,66.7,30.06,East,86,13.0,14.0,87,0.00,,---,0.00,VWS V14.01,2013-06-05 04:51:00,
2013-06-05 00:56:00,70.8,66.7,30.06,East,88,8.0,9.0,87,0.00,,---,0.00,VWS V14.01,2013-06-05 04:56:00,
2013-06-05 01:01:00,70.8,66.7,30.06,East,83,10.0,12.0,87,0.00,,---,0.00,VWS V14.01,2013-06-05 05:01:00,
2013-06-05 01:06:00,70.9,66.8,30.06,East,84,8.0,11.0,87,0.00,,---,0.00,VWS V14.01,2013-06-05 05:06:00,
2013-06-05 01:12:00,70.9,66.8,30.06,East,93,10.0,10.0,87,0.00,,---,0.00,VWS V14.01,2013-06-05 05:12:00,
2013-06-05 01:17:00,70.8,66.7,30.06,ENE,69,8.0,10.0,87,0.00,,---,0.00,VWS V14.01,2013-06-05 05:17:00,
2013-06-05 01:21:00,70.7,66.7,30.06,NE,54,6.0,11.0,87,0.00,,---,0.00,VWS V14.01,2013-06-05 05:21:00,
2013-06-05 01:26:00,70.4,66.3,30.06,ENE,57,8.0,12.0,87,0.00,,---,0.00,VWS V14.01,2013-06-05 05:26:00,
2013-06-05 01:31:00,70.3,66.6,30.06,East,88,11.0,11.0,88,0.00,,---,0.00,VWS V14.01,2013-06-05 05:31:00,
2013-06-05 01:37:00,70.2,66.2,30.06,East,94,9.0,13.0,87,0.00,,---,0.00,VWS V14.01,2013-06-05 05:37:00,
2013-06-05 01:42:00,70.1,66.1,30.06,East,89,13.0,13.0,87,0.00,,---,0.00,VWS V14.01,2013-06-05 05:42:00,
2013-06-05 01:47:00,70.2,66.2,30.06,ENE,61,9.0,9.0,87,0.00,,---,0.00,VWS V14.01,2013-06-05 05:47:00,
2013-06-05 01:52:00,70.2,66.2,30.06,East,87,9.0,10.0,87,0.00,,---,0.00,VWS V14.01,2013-06-05 05:52:00,
2013-06-05 01:57:00,70.3,66.2,30.06,ENE,68,8.0,9.0,87,0.00,,---,0.00,VWS V14.01,2013-06-05 05:57:00,
2013-06-05 02:02:00,70.4,66.3,30.06,East,80,9.0,10.0,87,0.00,,---,0.00,VWS V14.01,2013-06-05 06:02:00,
2013-06-05 02:07:00,70.3,66.2,30.06,ENE,71,10.0,13.0,87,0.00,,---,0.00,VWS V14.01,2013-06-05 06:07:00,
2013-06-05 02:12:00,70.2,66.2,30.06,ENE,70,7.0,9.0,87,0.00,,---,0.00,VWS V14.01,2013-06-05 06:12:00,
2013-06-05 02:17:00,70.1,66.1,30.06,ENE,72,9.0,10.0,87,0.00,,---,0.00,VWS V14.01,2013-06-05 06:17:00,
2013-06-05 02:22:00,69.9,65.9,30.06,ENE,77,5.0,11.0,87,0.00,,---,0.00,VWS V14.01,2013-06-05 06:22:00,
2013-06-05 02:27:00,69.8,65.8,30.06,ENE,78,9.0,10.0,87,0.00,,---,0.00,VWS V14.01,2013-06-05 06:27:00,
2013-06-05 02:32:00,69.8,66.1,30.06,East,80,8.0,14.0,88,0.00,,---,0.00,VWS V14.01,2013-06-05 06:32:00,
2013-06-05 02:37:00,69.7,66.0,30.06,ENE,70,9.0,9.0,88,0.00,,---,0.00,VWS V14.01,2013-06-05 06:37:00,
2013-06-05 02:42:00,69.6,65.9,30.06,ENE,76,10.0,15.0,88,0.00,,---,0.00,VWS V14.01,2013-06-05 06:42:00,
2013-06-05 02:47:00,69.5,65.8,30.05,East,80,8.0,11.0,88,0.00,,---,0.00,VWS V14.01,2013-06-05 06:47:00,
2013-06-05 02:52:00,69.4,65.7,30.06,East,84,5.0,11.0,88,0.00,,---,0.00,VWS V14.01,2013-06-05 06:52:00,
2013-06-05 02:57:00,69.4,66.0,30.06,ENE,71,7.0,9.0,89,0.00,,---,0.00,VWS V14.01,2013-06-05 06:57:00,
2013-06-05 03:02:00,69.4,66.0,30.06,East,84,7.0,10.0,89,0.00,,---,0.00,VWS V14.01,2013-06-05 07:02:00,
2013-06-05 03:07:00,69.4,66.0,30.05,ENE,67,7.0,11.0,89,0.00,,---,0.00,VWS V14.01,2013-06-05 07:07:00,
2013-06-05 03:12:00,69.4,66.0,30.05,East,98,8.0,13.0,89,0.00,,---,0.00,VWS V14.01,2013-06-05 07:12:00,
2013-06-05 03:17:00,69.4,66.0,30.05,East,83,9.0,14.0,89,0.00,,---,0.00,VWS V14.01,2013-06-05 07:17:00,
2013-06-05 03:22:00,69.4,66.0,30.05,East,82,11.0,11.0,89,0.00,,---,0.00,VWS V14.01,2013-06-05 07:22:00,
2013-06-05 03:27:00,69.3,65.9,30.05,ENE,65,12.0,14.0,89,0.00,,---,0.00,VWS V14.01,2013-06-05 07:27:00,
2013-06-05 03:32:00,69.3,65.9,30.05,East,79,6.0,11.0,89,0.00,,---,0.00,VWS V14.01,2013-06-05 07:32:00,
2013-06-05 03:37:00,69.3,65.9,30.05,ENE,68,5.0,10.0,89,0.00,,---,0.00,VWS V14.01,2013-06-05 07:37:00,
2013-06-05 03:42:00,69.2,65.8,30.05,East,80,7.0,11.0,89,0.00,,---,0.00,VWS V14.01,2013-06-05 07:42:00,
2013-06-05 03:47:00,69.0,65.6,30.05,ENE,76,10.0,12.0,89,0.00,,---,0.00,VWS V14.01,2013-06-05 07:47:00,
2013-06-05 03:52:00,68.9,65.5,30.05,ENE,67,9.0,10.0,89,0.00,,---,0.00,VWS V14.01,2013-06-05 07:52:00,
2013-06-05 03:57:00,68.9,65.5,30.04,East,85,9.0,13.0,89,0.00,,---,0.00,VWS V14.01,2013-06-05 07:57:00,
2013-06-05 04:02:00,68.9,65.2,30.04,East,86,9.0,10.0,88,0.00,,---,0.00,VWS V14.01,2013-06-05 08:02:00,
2013-06-05 04:07:00,69.0,65.3,30.05,East,88,6.0,13.0,88,0.00,,---,0.00,VWS V14.01,2013-06-05 08:07:00,
2013-06-05 04:12:00,69.1,65.1,30.05,East,82,9.0,14.0,87,0.00,,---,0.00,VWS V14.01,2013-06-05 08:12:00,
2013-06-05 04:17:00,69.3,64.9,30.05,East,89,10.0,11.0,86,0.00,,---,0.00,VWS V14.01,2013-06-05 08:17:00,
2013-06-05 04:22:00,69.5,65.1,30.05,East,87,5.0,11.0,86,0.00,,---,0.00,VWS V14.01,2013-06-05 08:22:00,
2013-06-05 04:27:00,69.7,65.0,30.05,East,81,8.0,11.0,85,0.00,,---,0.00,VWS V14.01,2013-06-05 08:27:00,
2013-06-05 04:32:00,69.9,64.8,30.05,East,91,9.0,11.0,84,0.00,,---,0.00,VWS V14.01,2013-06-05 08:32:00,
2013-06-05 04:37:00,70.0,64.9,30.05,East,84,10.0,10.0,84,0.00,,---,0.00,VWS V14.01,2013-06-05 08:37:00,
2013-06-05 04:42:00,70.0,64.6,30.05,East,84,10.0,14.0,83,0.00,,---,0.00,VWS V14.01,2013-06-05 08:42:00,
2013-06-05 04:47:00,70.2,64.4,30.05,East,89,7.0,7.0,82,0.00,,---,0.00,VWS V14.01,2013-06-05 08:47:00,
2013-06-05 04:52:00,70.3,63.8,30.05,East,94,11.0,13.0,80,0.00,,---,0.00,VWS V14.01,2013-06-05 08:52:00,
2013-06-05 04:57:00,70.4,63.9,30.05,East,82,8.0,9.0,80,0.00,,---,0.00,VWS V14.01,2013-06-05 08:57:00,
2013-06-05 05:02:00,70.4,63.9,30.05,East,90,8.0,10.0,80,0.00,,---,0.00,VWS V14.01,2013-06-05 09:02:00,
2013-06-05 05:07:00,70.3,63.5,30.05,East,98,14.0,14.0,79,0.00,,---,0.00,VWS V14.01,2013-06-05 09:07:00,
2013-06-05 05:12:00,70.5,63.3,30.05,ESE,103,13.0,15.0,78,0.00,,---,0.00,VWS V14.01,2013-06-05 09:12:00,
2013-06-05 05:17:00,70.6,63.4,30.05,East,86,9.0,11.0,78,0.00,,---,0.00,VWS V14.01,2013-06-05 09:17:00,
2013-06-05 05:22:00,70.4,63.2,30.05,East,80,7.0,11.0,78,0.00,,---,0.00,VWS V14.01,2013-06-05 09:22:00,
2013-06-05 05:27:00,70.5,63.3,30.05,East,85,10.0,11.0,78,0.00,,---,0.00,VWS V14.01,2013-06-05 09:27:00,
2013-06-05 05:32:00,70.4,62.8,30.05,East,86,11.0,11.0,77,0.00,,---,0.00,VWS V14.01,2013-06-05 09:32:00,
2013-06-05 05:37:00,70.4,62.5,30.05,East,92,11.0,13.0,76,0.00,,---,0.00,VWS V14.01,2013-06-05 09:37:00,
2013-06-05 05:42:00,70.6,63.0,30.05,East,97,13.0,13.0,77,0.00,,---,0.00,VWS V14.01,2013-06-05 09:42:00,
2013-06-05 05:47:00,70.4,62.5,30.05,East,90,10.0,11.0,76,0.00,,---,0.00,VWS V14.01,2013-06-05 09:47:00,
2013-06-05 05:52:00,70.5,62.6,30.05,East,94,9.0,11.0,76,0.00,,---,0.00,VWS V14.01,2013-06-05 09:52:00,
2013-06-05 05:57:00,70.5,62.2,30.05,East,88,9.0,11.0,75,0.00,,---,0.00,VWS V14.01,2013-06-05 09:57:00,
2013-06-05 06:02:00,70.5,62.6,30.06,East,84,10.0,11.0,76,0.00,,---,0.00,VWS V14.01,2013-06-05 10:02:00,
2013-06-05 06:07:00,70.5,62.6,30.06,East,81,11.0,13.0,76,0.00,,---,0.00,VWS V14.01,2013-06-05 10:07:00,
2013-06-05 06:12:00,70.5,62.2,30.06,East,96,11.0,11.0,75,0.00,,---,0.00,VWS V14.01,2013-06-05 10:12:00,
2013-06-05 06:17:00,70.6,62.3,30.06,East,82,9.0,13.0,75,0.00,,---,0.00,VWS V14.01,2013-06-05 10:17:00,
2013-06-05 06:22:00,70.6,62.7,30.07,NE,54,3.0,6.0,76,0.00,,---,0.00,VWS V14.01,2013-06-05 10:22:00,
2013-06-05 06:27:00,70.6,63.0,30.07,ENE,62,5.0,5.0,77,0.00,,---,0.00,VWS V14.01,2013-06-05 10:27:00,
2013-06-05 06:32:00,70.5,63.7,30.07,ENE,75,3.0,5.0,79,0.00,,---,0.00,VWS V14.01,2013-06-05 10:32:00,
2013-06-05 06:37:00,70.2,63.8,30.07,ENE,76,8.0,8.0,80,0.00,,---,0.00,VWS V14.01,2013-06-05 10:37:00,
2013-06-05 06:42:00,70.0,63.9,30.07,East,82,3.0,9.0,81,0.00,,---,0.00,VWS V14.01,2013-06-05 10:42:00,
2013-06-05 06:47:00,69.9,64.2,30.07,NE,48,9.0,9.0,82,0.00,,---,0.00,VWS V14.01,2013-06-05 10:47:00,
2013-06-05 06:52:00,69.8,64.1,30.07,ENE,66,4.0,7.0,82,0.00,,---,0.00,VWS V14.01,2013-06-05 10:52:00,
2013-06-05 06:57:00,69.8,64.1,30.07,East,88,6.0,9.0,82,0.00,,---,0.00,VWS V14.01,2013-06-05 10:57:00,
2013-06-05 07:02:00,69.9,64.2,30.07,East,81,6.0,7.0,82,0.00,,---,0.00,VWS V14.01,2013-06-05 11:02:00,
2013-06-05 07:07:00,70.1,64.7,30.07,ENE,69,7.0,8.0,83,0.00,,---,0.00,VWS V14.01,2013-06-05 11:07:00,
2013-06-05 07:12:00,70.2,64.4,30.07,East,94,7.0,10.0,82,0.00,,---,0.00,VWS V14.01,2013-06-05 11:12:00,
2013-06-05 07:17:00,70.3,64.9,30.07,ENE,70,9.0,10.0,83,0.00,,---,0.00,VWS V14.01,2013-06-05 11:17:00,
2013-06-05 07:22:00,70.4,64.7,30.07,ENE,74,7.0,10.0,82,0.00,,---,0.00,VWS V14.01,2013-06-05 11:22:00,
2013-06-05 07:27:00,70.4,64.7,30.07,NE,56,8.0,10.0,82,0.00,,---,0.00,VWS V14.01,2013-06-05 11:27:00,
2013-06-05 07:32:00,70.4,64.7,30.07,NE,53,5.0,11.0,82,0.00,,---,0.00,VWS V14.01,2013-06-05 11:32:00,
2013-06-05 07:37:00,70.4,64.7,30.07,ENE,63,8.0,10.0,82,0.00,,---,0.00,VWS V14.01,2013-06-05 11:37:00,
2013-06-05 07:42:00,70.4,64.3,30.07,ENE,59,5.0,9.0,81,0.00,,---,0.00,VWS V14.01,2013-06-05 11:42:00,
2013-06-05 07:47:00,70.5,64.4,30.07,NE,52,4.0,9.0,81,0.00,,---,0.00,VWS V14.01,2013-06-05 11:47:00,
2013-06-05 07:52:00,70.6,64.1,30.07,ENE,77,7.0,10.0,80,0.00,,---,0.00,VWS V14.01,2013-06-05 11:52:00,
2013-06-05 07:57:00,70.8,64.0,30.08,ENE,65,9.0,9.0,79,0.00,,---,0.00,VWS V14.01,2013-06-05 11:57:00,
2013-06-05 08:02:00,71.1,64.3,30.08,ENE,64,9.0,13.0,79,0.00,,---,0.00,VWS V14.01,2013-06-05 12:02:00,
2013-06-05 08:07:00,71.4,64.2,30.08,ENE,72,8.0,11.0,78,0.00,,---,0.00,VWS V14.01,2013-06-05 12:07:00,
2013-06-05 08:12:00,71.6,64.0,30.08,East,88,11.0,15.0,77,0.00,,---,0.00,VWS V14.01,2013-06-05 12:12:00,
2013-06-05 08:17:00,71.8,64.6,30.08,East,79,15.0,15.0,78,0.00,,---,0.00,VWS V14.01,2013-06-05 12:17:00,
2013-06-05 08:22:00,72.0,64.4,30.08,East,80,11.0,13.0,77,0.00,,---,0.00,VWS V14.01,2013-06-05 12:22:00,
2013-06-05 08:27:00,72.3,64.3,30.08,NE,53,10.0,14.0,76,0.00,,---,0.00,VWS V14.01,2013-06-05 12:27:00,
2013-06-05 08:32:00,72.4,64.0,30.08,East,94,13.0,16.0,75,0.00,,---,0.00,VWS V14.01,2013-06-05 12:32:00,
2013-06-05 08:37:00,72.6,64.2,30.08,East,85,8.0,14.0,75,0.00,,---,0.00,VWS V14.01,2013-06-05 12:37:00,
2013-06-05 08:42:00,72.9,64.5,30.08,ENE,78,10.0,14.0,75,0.00,,---,0.00,VWS V14.01,2013-06-05 12:42:00,
2013-06-05 08:47:00,73.1,64.3,30.08,East,94,9.0,14.0,74,0.00,,---,0.00,VWS V14.01,2013-06-05 12:47:00,
2013-06-05 08:52:00,73.3,64.1,30.08,East,93,16.0,17.0,73,0.00,,---,0.00,VWS V14.01,2013-06-05 12:52:00,
2013-06-05 08:57:00,73.2,64.0,30.08,ENE,70,10.0,15.0,73,0.00,,---,0.00,VWS V14.01,2013-06-05 12:57:00,
2013-06-05 09:02:00,73.3,64.1,30.08,East,80,10.0,15.0,73,0.00,,---,0.00,VWS V14.01,2013-06-05 13:02:00,
2013-06-05 09:07:00,73.4,63.8,30.08,East,92,10.0,17.0,72,0.00,,---,0.00,VWS V14.01,2013-06-05 13:07:00,
2013-06-05 09:12:00,73.4,64.2,30.09,East,90,13.0,14.0,73,0.00,,---,0.00,VWS V14.01,2013-06-05 13:12:00,
2013-06-05 09:17:00,73.5,63.5,30.08,East,82,14.0,15.0,71,0.00,,---,0.00,VWS V14.01,2013-06-05 13:17:00,
2013-06-05 09:22:00,73.6,63.6,30.08,East,94,14.0,16.0,71,0.00,,---,0.00,VWS V14.01,2013-06-05 13:22:00,
2013-06-05 09:27:00,73.8,63.4,30.09,East,88,13.0,13.0,70,0.00,,---,0.00,VWS V14.01,2013-06-05 13:27:00,
2013-06-05 09:32:00,74.0,63.2,30.09,ENE,68,14.0,17.0,69,0.00,,---,0.00,VWS V14.01,2013-06-05 13:32:00,
2013-06-05 09:37:00,74.3,63.1,30.08,ENE,67,14.0,16.0,68,0.00,,---,0.00,VWS V14.01,2013-06-05 13:37:00,
2013-06-05 09:42:00,74.5,62.8,30.08,East,80,13.0,15.0,67,0.00,,---,0.00,VWS V14.01,2013-06-05 13:42:00,
2013-06-05 09:47:00,74.7,62.6,30.09,East,90,9.0,11.0,66,0.00,,---,0.00,VWS V14.01,2013-06-05 13:47:00,
2013-06-05 09:52:00,75.0,63.3,30.09,East,80,9.0,16.0,67,0.00,,---,0.00,VWS V14.01,2013-06-05 13:52:00,
2013-06-05 09:57:00,75.2,63.5,30.09,East,84,9.0,13.0,67,0.00,,---,0.00,VWS V14.01,2013-06-05 13:57:00,
2013-06-05 10:02:00,75.7,63.5,30.09,ENE,74,8.0,15.0,66,0.00,,---,0.00,VWS V14.01,2013-06-05 14:02:00,
2013-06-05 10:07:00,75.8,63.2,30.09,ENE,72,9.0,10.0,65,0.00,,---,0.00,VWS V14.01,2013-06-05 14:07:00,
2013-06-05 10:12:00,75.8,62.8,30.09,ENE,71,10.0,14.0,64,0.00,,---,0.00,VWS V14.01,2013-06-05 14:12:00,
2013-06-05 10:17:00,75.6,62.6,30.09,East,82,9.0,12.0,64,0.00,,---,0.00,VWS V14.01,2013-06-05 14:17:00,
2013-06-05 10:22:00,75.4,62.4,30.08,East,101,11.0,13.0,64,0.00,,---,0.00,VWS V14.01,2013-06-05 14:22:00,
2013-06-05 10:27:00,75.4,61.9,30.08,ENE,76,12.0,14.0,63,0.00,,---,0.00,VWS V14.01,2013-06-05 14:27:00,
2013-06-05 10:32:00,75.5,62.0,30.08,ENE,67,13.0,16.0,63,0.00,,---,0.00,VWS V14.01,2013-06-05 14:32:00,
2013-06-05 10:37:00,76.1,62.2,30.08,East,84,9.0,16.0,62,0.00,,---,0.00,VWS V14.01,2013-06-05 14:37:00,
2013-06-05 10:42:00,76.2,61.8,30.08,ENE,62,11.0,17.0,61,0.00,,---,0.00,VWS V14.01,2013-06-05 14:42:00,
2013-06-05 10:47:00,76.6,61.2,30.08,East,92,11.0,14.0,59,0.00,,---,0.00,VWS V14.01,2013-06-05 14:47:00,
2013-06-05 10:52:00,76.6,60.7,30.08,East,82,14.0,17.0,58,0.00,,---,0.00,VWS V14.01,2013-06-05 14:52:00,
2013-06-05 10:57:00,76.4,61.5,30.08,ESE,105,13.0,16.0,60,0.00,,---,0.00,VWS V14.01,2013-06-05 14:57:00,
2013-06-05 11:02:00,76.6,61.2,30.08,East,80,16.0,16.0,59,0.00,,---,0.00,VWS V14.01,2013-06-05 15:02:00,
2013-06-05 11:07:00,76.9,62.4,30.08,ENE,77,12.0,15.0,61,0.00,,---,0.00,VWS V14.01,2013-06-05 15:07:00,
2013-06-05 11:12:00,77.0,60.6,30.08,ENE,78,12.0,16.0,57,0.00,,---,0.00,VWS V14.01,2013-06-05 15:12:00,
2013-06-05 11:17:00,77.0,60.6,30.09,ENE,57,10.0,14.0,57,0.00,,---,0.00,VWS V14.01,2013-06-05 15:17:00,
2013-06-05 11:22:00,77.3,60.4,30.09,East,84,6.0,12.0,56,0.00,,---,0.00,VWS V14.01,2013-06-05 15:22:00,
2013-06-05 11:27:00,76.8,59.9,30.09,East,98,11.0,15.0,56,0.00,,---,0.00,VWS V14.01,2013-06-05 15:27:00,
2013-06-05 11:32:00,76.7,58.8,30.09,ESE,104,11.0,18.0,54,0.00,,---,0.00,VWS V14.01,2013-06-05 15:32:00,
2013-06-05 11:37:00,76.6,58.7,30.10,ENE,74,11.0,13.0,54,0.00,,---,0.00,VWS V14.01,2013-06-05 15:37:00,
2013-06-05 11:42:00,77.4,58.4,30.09,East,93,9.0,15.0,52,0.00,,---,0.00,VWS V14.01,2013-06-05 15:42:00,
2013-06-05 11:47:00,77.1,57.6,30.10,ESE,111,10.0,14.0,51,0.00,,---,0.00,VWS V14.01,2013-06-05 15:47:00,
2013-06-05 11:52:00,77.1,57.6,30.09,ENE,78,10.0,14.0,51,0.00,,---,0.00,VWS V14.01,2013-06-05 15:52:00,
2013-06-05 11:57:00,76.8,58.9,30.09,East,86,11.0,13.0,54,0.00,,---,0.00,VWS V14.01,2013-06-05 15:57:00,
2013-06-05 12:02:00,77.0,59.6,30.09,East,83,11.0,14.0,55,0.00,,---,0.00,VWS V14.01,2013-06-05 16:02:00,
2013-06-05 12:07:00,77.1,58.1,30.09,East,95,10.0,14.0,52,0.00,,---,0.00,VWS V14.01,2013-06-05 16:07:00,
2013-06-05 12:12:00,77.5,58.5,30.09,East,101,9.0,14.0,52,0.00,,---,0.00,VWS V14.01,2013-06-05 16:12:00,
2013-06-05 12:17:00,78.2,59.2,30.09,ESE,109,10.0,15.0,52,0.00,,---,0.00,VWS V14.01,2013-06-05 16:17:00,
2013-06-05 12:22:00,77.9,58.9,30.09,East,85,7.0,15.0,52,0.00,,---,0.00,VWS V14.01,2013-06-05 16:22:00,
2013-06-05 12:27:00,77.6,59.7,30.09,East,101,14.0,14.0,54,0.00,,---,0.00,VWS V14.01,2013-06-05 16:27:00,
2013-06-05 12:32:00,77.8,58.2,30.09,East,88,10.0,14.0,51,0.00,,---,0.00,VWS V14.01,2013-06-05 16:32:00,
2013-06-05 12:37:00,77.6,58.1,30.09,ESE,115,9.0,14.0,51,0.00,,---,0.00,VWS V14.01,2013-06-05 16:37:00,
2013-06-05 12:42:00,77.2,58.2,30.09,East,96,11.0,13.0,52,0.00,,---,0.00,VWS V14.01,2013-06-05 16:42:00,
2013-06-05 12:47:00,75.7,65.6,30.08,ESE,109,12.0,13.0,71,0.00,,---,0.00,VWS V14.01,2013-06-05 16:47:00,
2013-06-05 12:52:00,74.9,66.1,30.08,ESE,115,13.0,14.0,74,0.00,,---,0.00,VWS V14.01,2013-06-05 16:52:00,
2013-06-05 12:57:00,74.5,66.1,30.08,ESE,117,14.0,14.0,75,0.00,,---,0.00,VWS V14.01,2013-06-05 16:57:00,
2013-06-05 13:02:00,74.3,65.5,30.08,ESE,115,14.0,16.0,74,0.00,,---,0.00,VWS V14.01,2013-06-05 17:02:00,
2013-06-05 13:07:00,74.4,66.0,30.08,ESE,116,13.0,15.0,75,0.00,,---,0.00,VWS V14.01,2013-06-05 17:07:00,
2013-06-05 13:12:00,74.4,66.3,30.08,ESE,117,11.0,16.0,76,0.00,,---,0.00,VWS V14.01,2013-06-05 17:12:00,
2013-06-05 13:17:00,74.3,66.2,30.07,ESE,120,17.0,17.0,76,0.00,,---,0.00,VWS V14.01,2013-06-05 17:17:00,
2013-06-05 13:22:00,74.2,65.8,30.07,ESE,121,17.0,17.0,75,0.00,,---,0.00,VWS V14.01,2013-06-05 17:22:00,
2013-06-05 13:27:00,74.3,66.2,30.07,ESE,115,14.0,16.0,76,0.00,,---,0.00,VWS V14.01,2013-06-05 17:27:00,
2013-06-05 13:32:00,74.3,65.9,30.07,ESE,119,15.0,17.0,75,0.00,,---,0.00,VWS V14.01,2013-06-05 17:32:00,
2013-06-05 13:37:00,74.4,66.3,30.07,ESE,111,13.0,15.0,76,0.00,,---,0.00,VWS V14.01,2013-06-05 17:37:00,
2013-06-05 13:42:00,74.3,66.2,30.06,ESE,117,15.0,15.0,76,0.00,,---,0.00,VWS V14.01,2013-06-05 17:42:00,
2013-06-05 13:47:00,74.3,65.5,30.06,ESE,121,16.0,19.0,74,0.00,,---,0.00,VWS V14.01,2013-06-05 17:47:00,
2013-06-05 13:52:00,74.3,65.5,30.06,ESE,117,17.0,19.0,74,0.00,,---,0.00,VWS V14.01,2013-06-05 17:52:00,
2013-06-05 13:57:00,74.4,66.0,30.06,ESE,119,13.0,17.0,75,0.00,,---,0.00,VWS V14.01,2013-06-05 17:57:00,
2013-06-05 14:02:00,74.5,66.4,30.06,ESE,123,16.0,16.0,76,0.00,,---,0.00,VWS V14.01,2013-06-05 18:02:00,
2013-06-05 14:07:00,74.4,66.3,30.06,SE,125,14.0,15.0,76,0.00,,---,0.00,VWS V14.01,2013-06-05 18:07:00,
2013-06-05 14:12:00,74.5,66.8,30.06,SE,129,13.0,16.0,77,0.00,,---,0.00,VWS V14.01,2013-06-05 18:12:00,
2013-06-05 14:17:00,74.3,65.9,30.06,SE,126,13.0,16.0,75,0.00,,---,0.00,VWS V14.01,2013-06-05 18:17:00,
2013-06-05 14:22:00,74.4,66.0,30.06,SE,128,14.0,16.0,75,0.00,,---,0.00,VWS V14.01,2013-06-05 18:22:00,
2013-06-05 14:27:00,74.4,66.3,30.06,ESE,122,15.0,16.0,76,0.00,,---,0.00,VWS V14.01,2013-06-05 18:27:00,
2013-06-05 14:32:00,74.4,66.3,30.06,ESE,123,17.0,17.0,76,0.00,,---,0.00,VWS V14.01,2013-06-05 18:32:00,
2013-06-05 14:37:00,74.4,66.7,30.05,ESE,120,17.0,17.0,77,0.00,,---,0.00,VWS V14.01,2013-06-05 18:37:00,
2013-06-05 14:42:00,74.3,66.2,30.05,SE,126,16.0,17.0,76,0.00,,---,0.00,VWS V14.01,2013-06-05 18:42:00,
2013-06-05 14:47:00,74.4,66.7,30.05,SE,126,14.0,16.0,77,0.00,,---,0.00,VWS V14.01,2013-06-05 18:47:00,
2013-06-05 14:52:00,74.4,66.7,30.05,SE,134,15.0,17.0,77,0.00,,---,0.00,VWS V14.01,2013-06-05 18:52:00,
2013-06-05 14:57:00,74.5,66.8,30.05,SE,126,13.0,16.0,77,0.00,,---,0.00,VWS V14.01,2013-06-05 18:57:00,
2013-06-05 15:02:00,74.2,66.2,30.05,SE,125,16.0,17.0,76,0.00,,---,0.00,VWS V14.01,2013-06-05 19:02:00,
2013-06-05 15:07:00,74.3,66.6,30.05,SE,127,16.0,17.0,77,0.00,,---,0.00,VWS V14.01,2013-06-05 19:07:00,
2013-06-05 15:12:00,74.4,66.7,30.05,ESE,122,16.0,16.0,77,0.00,,---,0.00,VWS V14.01,2013-06-05 19:12:00,
2013-06-05 15:17:00,74.2,66.2,30.05,ESE,121,14.0,17.0,76,0.00,,---,0.00,VWS V14.01,2013-06-05 19:17:00,
2013-06-05 15:22:00,74.4,66.7,30.04,ESE,123,15.0,16.0,77,0.00,,---,0.00,VWS V14.01,2013-06-05 19:22:00,
2013-06-05 15:27:00,74.3,66.6,30.04,ESE,121,15.0,16.0,77,0.00,,---,0.00,VWS V14.01,2013-06-05 19:27:00,
2013-06-05 15:32:00,74.3,66.6,30.04,SE,126,15.0,16.0,77,0.00,,---,0.00,VWS V14.01,2013-06-05 19:32:00,
2013-06-05 15:37:00,74.3,67.0,30.04,SE,127,15.0,16.0,78,0.00,,---,0.00,VWS V14.01,2013-06-05 19:37:00,
2013-06-05 15:42:00,74.4,67.1,30.04,ESE,120,13.0,16.0,78,0.00,,---,0.00,VWS V14.01,2013-06-05 19:42:00,
2013-06-05 15:47:00,74.2,66.5,30.04,ESE,119,15.0,17.0,77,0.00,,---,0.00,VWS V14.01,2013-06-05 19:47:00,
2013-06-05 15:52:00,74.3,66.6,30.03,ESE,121,14.0,17.0,77,0.00,,---,0.00,VWS V14.01,2013-06-05 19:52:00,
2013-06-05 15:57:00,74.4,67.1,30.03,ESE,119,15.0,17.0,78,0.00,,---,0.00,VWS V14.01,2013-06-05 19:57:00,
2013-06-05 16:02:00,74.3,67.0,30.03,SE,125,15.0,17.0,78,0.00,,---,0.00,VWS V14.01,2013-06-05 20:02:00,
2013-06-05 16:07:00,74.3,67.0,30.03,SE,124,16.0,17.0,78,0.00,,---,0.00,VWS V14.01,2013-06-05 20:07:00,
2013-06-05 16:12:00,74.3,67.0,30.03,ESE,123,17.0,17.0,78,0.00,,---,0.00,VWS V14.01,2013-06-05 20:12:00,
2013-06-05 16:17:00,74.3,67.0,30.03,SE,126,17.0,18.0,78,0.00,,---,0.00,VWS V14.01,2013-06-05 20:17:00,
2013-06-05 16:22:00,74.3,67.0,30.02,ESE,120,17.0,17.0,78,0.00,,---,0.00,VWS V14.01,2013-06-05 20:22:00,
2013-06-05 16:27:00,74.4,67.1,30.03,SE,127,15.0,17.0,78,0.00,,---,0.00,VWS V14.01,2013-06-05 20:27:00,
2013-06-05 16:32:00,74.3,67.0,30.03,ESE,120,16.0,17.0,78,0.00,,---,0.00,VWS V14.01,2013-06-05 20:32:00,
2013-06-05 16:37:00,74.4,67.5,30.03,ESE,121,17.0,18.0,79,0.00,,---,0.00,VWS V14.01,2013-06-05 20:37:00,
2013-06-05 16:42:00,74.4,67.5,30.02,ESE,123,16.0,17.0,79,0.00,,---,0.00,VWS V14.01,2013-06-05 20:42:00,
2013-06-05 16:47:00,74.3,67.0,30.02,ESE,119,14.0,17.0,78,0.00,,---,0.00,VWS V14.01,2013-06-05 20:47:00,
2013-06-05 16:52:00,74.2,66.5,30.02,ESE,119,15.0,19.0,77,0.00,,---,0.00,VWS V14.01,2013-06-05 20:52:00,
2013-06-05 16:57:00,74.2,66.9,30.02,ESE,122,17.0,17.0,78,0.00,,---,0.00,VWS V14.01,2013-06-05 20:57:00,
2013-06-05 17:02:00,74.4,67.8,30.02,ESE,121,14.0,15.0,80,0.00,,---,0.00,VWS V14.01,2013-06-05 21:02:00,
2013-06-05 17:07:00,74.3,67.4,30.02,ESE,123,16.0,16.0,79,0.00,,---,0.00,VWS V14.01,2013-06-05 21:07:00,
2013-06-05 17:12:00,74.2,66.9,30.02,ESE,120,16.0,16.0,78,0.00,,---,0.00,VWS V14.01,2013-06-05 21:12:00,
2013-06-05 17:17:00,74.2,67.3,30.02,SE,125,15.0,16.0,79,0.00,,---,0.00,VWS V14.01,2013-06-05 21:17:00,
2013-06-05 17:22:00,74.1,66.8,30.02,ESE,119,15.0,17.0,78,0.00,,---,0.00,VWS V14.01,2013-06-05 21:22:00,
2013-06-05 17:27:00,74.2,67.3,30.02,ESE,123,14.0,15.0,79,0.00,,---,0.00,VWS V14.01,2013-06-05 21:27:00,
2013-06-05 17:32:00,74.2,67.3,30.02,SE,124,16.0,16.0,79,0.00,,---,0.00,VWS V14.01,2013-06-05 21:32:00,
2013-06-05 17:37:00,74.2,66.9,30.02,ESE,121,14.0,16.0,78,0.00,,---,0.00,VWS V14.01,2013-06-05 21:37:00,
2013-06-05 17:42:00,74.1,66.8,30.02,ESE,123,15.0,17.0,78,0.00,,---,0.00,VWS V14.01,2013-06-05 21:42:00,
2013-06-05 17:47:00,74.2,67.3,30.02,SE,126,13.0,16.0,79,0.00,,---,0.00,VWS V14.01,2013-06-05 21:47:00,
2013-06-05 17:52:00,74.1,66.8,30.02,ESE,115,18.0,18.0,78,0.00,,---,0.00,VWS V14.01,2013-06-05 21:52:00,
2013-06-05 17:57:00,74.2,67.3,30.01,ESE,118,16.0,18.0,79,0.00,,---,0.00,VWS V14.01,2013-06-05 21:57:00,
2013-06-05 18:02:00,74.2,67.3,30.01,ESE,117,16.0,17.0,79,0.00,,---,0.00,VWS V14.01,2013-06-05 22:02:00,
2013-06-05 18:07:00,74.0,67.1,30.01,ESE,119,17.0,17.0,79,0.00,,---,0.00,VWS V14.01,2013-06-05 22:07:00,
2013-06-05 18:12:00,74.0,66.7,30.02,ESE,117,17.0,18.0,78,0.00,,---,0.00,VWS V14.01,2013-06-05 22:12:00,
2013-06-05 18:17:00,74.0,66.7,30.01,ESE,121,16.0,18.0,78,0.00,,---,0.00,VWS V14.01,2013-06-05 22:17:00,
2013-06-05 18:22:00,74.1,67.2,30.02,ESE,122,16.0,18.0,79,0.00,,---,0.00,VWS V14.01,2013-06-05 22:22:00,
2013-06-05 18:27:00,74.0,66.7,30.02,ESE,120,17.0,18.0,78,0.00,,---,0.00,VWS V14.01,2013-06-05 22:27:00,
2013-06-05 18:32:00,74.2,67.3,30.02,ESE,123,16.0,16.0,79,0.00,,---,0.00,VWS V14.01,2013-06-05 22:32:00,
2013-06-05 18:37:00,74.1,67.5,30.02,ESE,114,14.0,16.0,80,0.00,,---,0.00,VWS V14.01,2013-06-05 22:37:00,
2013-06-05 18:42:00,74.0,66.7,30.02,ESE,115,13.0,17.0,78,0.00,,---,0.00,VWS V14.01,2013-06-05 22:42:00,
2013-06-05 18:47:00,74.2,67.6,30.02,ESE,120,13.0,15.0,80,0.00,,---,0.00,VWS V14.01,2013-06-05 22:47:00,
2013-06-05 18:52:00,74.1,67.5,30.02,ESE,120,15.0,16.0,80,0.00,,---,0.00,VWS V14.01,2013-06-05 22:52:00,
2013-06-05 18:57:00,74.1,67.2,30.02,ESE,121,15.0,15.0,79,0.00,,---,0.00,VWS V14.01,2013-06-05 22:57:00,
2013-06-05 19:02:00,74.1,67.2,30.02,ESE,115,14.0,15.0,79,0.00,,---,0.00,VWS V14.01,2013-06-05 23:02:00,
2013-06-05 19:07:00,74.2,67.6,30.02,ESE,111,13.0,13.0,80,0.00,,---,0.00,VWS V14.01,2013-06-05 23:07:00,
2013-06-05 19:12:00,74.1,67.5,30.02,ESE,109,14.0,15.0,80,0.00,,---,0.00,VWS V14.01,2013-06-05 23:12:00,
2013-06-05 19:17:00,74.0,67.1,30.02,ESE,105,14.0,16.0,79,0.00,,---,0.00,VWS V14.01,2013-06-05 23:17:00,
2013-06-05 19:22:00,74.1,67.5,30.03,ESE,109,13.0,14.0,80,0.00,,---,0.00,VWS V14.01,2013-06-05 23:22:00,
2013-06-05 19:27:00,74.0,67.1,30.02,ESE,115,14.0,15.0,79,0.00,,---,0.00,VWS V14.01,2013-06-05 23:27:00,
2013-06-05 19:32:00,74.0,67.1,30.02,ESE,107,13.0,15.0,79,0.00,,---,0.00,VWS V14.01,2013-06-05 23:32:00,
2013-06-05 19:37:00,74.1,67.2,30.02,East,100,14.0,15.0,79,0.00,,---,0.00,VWS V14.01,2013-06-05 23:37:00,
2013-06-05 19:42:00,74.0,66.3,30.02,ESE,106,13.0,16.0,77,0.00,,---,0.00,VWS V14.01,2013-06-05 23:42:00,
2013-06-05 19:47:00,74.1,66.8,30.02,ESE,109,14.0,15.0,78,0.00,,---,0.00,VWS V14.01,2013-06-05 23:47:00,
2013-06-05 19:52:00,74.1,67.2,30.02,ESE,109,12.0,14.0,79,0.00,,---,0.00,VWS V14.01,2013-06-05 23:52:00,
2013-06-05 19:57:00,74.0,67.1,30.02,ESE,109,13.0,15.0,79,0.00,,---,0.00,VWS V14.01,2013-06-05 23:57:00,
2013-06-05 20:02:00,74.1,67.2,30.03,ESE,115,13.0,13.0,79,0.00,,---,0.00,VWS V14.01,2013-06-06 00:02:00,
2013-06-05 20:07:00,74.1,67.2,30.02,ESE,113,12.0,14.0,79,0.00,,---,0.00,VWS V14.01,2013-06-06 00:07:00,
2013-06-05 20:12:00,74.0,67.1,30.02,ESE,111,14.0,15.0,79,0.00,,---,0.00,VWS V14.01,2013-06-06 00:12:00,
2013-06-05 20:17:00,74.0,66.7,30.02,ESE,106,14.0,15.0,78,0.00,,---,0.00,VWS V14.01,2013-06-06 00:17:00,
2013-06-05 20:22:00,74.1,66.8,30.02,ESE,108,14.0,14.0,78,0.00,,---,0.00,VWS V14.01,2013-06-06 00:22:00,
2013-06-05 20:27:00,74.1,66.8,30.02,ESE,105,14.0,15.0,78,0.00,,---,0.00,VWS V14.01,2013-06-06 00:27:00,
2013-06-05 20:32:00,73.8,66.2,30.02,East,95,10.0,11.0,77,0.00,,---,0.00,VWS V14.01,2013-06-06 00:32:00,
2013-06-05 20:37:00,73.8,65.8,30.03,East,80,10.0,13.0,76,0.00,,---,0.00,VWS V14.01,2013-06-06 00:37:00,
2013-06-05 20:42:00,73.8,65.8,30.03,ESE,104,10.0,15.0,76,0.00,,---,0.00,VWS V14.01,2013-06-06 00:42:00,
2013-06-05 20:47:00,74.0,66.7,30.02,East,96,11.0,15.0,78,0.00,,---,0.00,VWS V14.01,2013-06-06 00:47:00,
2013-06-05 20:52:00,74.1,67.2,30.02,East,92,11.0,15.0,79,0.00,,---,0.00,VWS V14.01,2013-06-06 00:52:00,
2013-06-05 20:57:00,74.0,66.7,30.02,ESE,103,15.0,15.0,78,0.00,,---,0.00,VWS V14.01,2013-06-06 00:57:00,
2013-06-05 21:02:00,73.9,66.6,30.03,ESE,103,13.0,13.0,78,0.00,,---,0.00,VWS V14.01,2013-06-06 01:02:00,
2013-06-05 21:07:00,73.6,65.9,30.03,East,94,9.0,11.0,77,0.00,,---,0.00,VWS V14.01,2013-06-06 01:07:00,
2013-06-05 21:12:00,73.5,65.9,30.03,ENE,76,9.0,13.0,77,0.00,,---,0.00,VWS V14.01,2013-06-06 01:12:00,
2013-06-05 21:17:00,73.5,65.9,30.03,East,80,11.0,13.0,77,0.00,,---,0.00,VWS V14.01,2013-06-06 01:17:00,
2013-06-05 21:22:00,73.5,65.9,30.03,East,83,10.0,10.0,77,0.00,,---,0.00,VWS V14.01,2013-06-06 01:22:00,
2013-06-05 21:27:00,73.4,65.4,30.04,East,86,8.0,10.0,76,0.00,,---,0.00,VWS V14.01,2013-06-06 01:27:00,
2013-06-05 21:32:00,73.3,65.3,30.04,East,93,10.0,13.0,76,0.00,,---,0.00,VWS V14.01,2013-06-06 01:32:00,
2013-06-05 21:37:00,73.3,65.3,30.04,East,94,11.0,11.0,76,0.00,,---,0.00,VWS V14.01,2013-06-06 01:37:00,
2013-06-05 21:42:00,73.2,65.2,30.04,East,94,10.0,11.0,76,0.00,,---,0.00,VWS V14.01,2013-06-06 01:42:00,
2013-06-05 21:47:00,73.2,65.2,30.04,East,94,10.0,11.0,76,0.00,,---,0.00,VWS V14.01,2013-06-06 01:47:00,
2013-06-05 21:52:00,73.1,65.1,30.05,East,84,10.0,13.0,76,0.00,,---,0.00,VWS V14.01,2013-06-06 01:52:00,
2013-06-05 21:57:00,73.1,65.1,30.04,East,90,10.0,13.0,76,0.00,,---,0.00,VWS V14.01,2013-06-06 01:57:00,
2013-06-05 22:02:00,73.1,65.5,30.04,ESE,103,10.0,10.0,77,0.00,,---,0.00,VWS V14.01,2013-06-06 02:02:00,
2013-06-05 22:07:00,73.0,65.4,30.04,East,84,9.0,13.0,77,0.00,,---,0.00,VWS V14.01,2013-06-06 02:07:00,
2013-06-05 22:12:00,73.1,65.5,30.04,East,94,13.0,13.0,77,0.00,,---,0.00,VWS V14.01,2013-06-06 02:12:00,
2013-06-05 22:17:00,73.1,65.5,30.04,East,93,11.0,15.0,77,0.00,,---,0.00,VWS V14.01,2013-06-06 02:17:00,
2013-06-05 22:22:00,73.1,65.8,30.05,East,83,14.0,14.0,78,0.00,,---,0.00,VWS V14.01,2013-06-06 02:22:00,
2013-06-05 22:27:00,73.2,65.9,30.05,East,85,14.0,14.0,78,0.00,,---,0.00,VWS V14.01,2013-06-06 02:27:00,
2013-06-05 22:32:00,73.1,65.8,30.04,ESE,103,11.0,14.0,78,0.00,,---,0.00,VWS V14.01,2013-06-06 02:32:00,
2013-06-05 22:37:00,73.3,66.4,30.04,East,96,14.0,16.0,79,0.00,,---,0.00,VWS V14.01,2013-06-06 02:37:00,
2013-06-05 22:42:00,73.1,66.2,30.04,East,101,14.0,14.0,79,0.00,,---,0.00,VWS V14.01,2013-06-06 02:42:00,
2013-06-05 22:47:00,73.0,65.7,30.04,East,81,11.0,11.0,78,0.00,,---,0.00,VWS V14.01,2013-06-06 02:47:00,
2013-06-05 22:52:00,72.9,66.0,30.04,East,88,10.0,14.0,79,0.00,,---,0.00,VWS V14.01,2013-06-06 02:52:00,
2013-06-05 22:57:00,72.9,66.0,30.04,East,97,13.0,13.0,79,0.00,,---,0.00,VWS V14.01,2013-06-06 02:57:00,
2013-06-05 23:02:00,73.0,66.1,30.04,East,96,10.0,16.0,79,0.00,,---,0.00,VWS V14.01,2013-06-06 03:02:00,
2013-06-05 23:07:00,72.9,66.0,30.04,East,96,11.0,14.0,79,0.00,,---,0.00,VWS V14.01,2013-06-06 03:07:00,
2013-06-05 23:12:00,73.0,66.5,30.04,East,89,10.0,13.0,80,0.00,,---,0.00,VWS V14.01,2013-06-06 03:12:00,
2013-06-05 23:17:00,73.0,66.5,30.04,East,92,8.0,11.0,80,0.00,,---,0.00,VWS V14.01,2013-06-06 03:17:00,
2013-06-05 23:22:00,73.0,66.5,30.04,ENE,76,10.0,10.0,80,0.00,,---,0.00,VWS V14.01,2013-06-06 03:22:00,
2013-06-05 23:27:00,73.0,66.8,30.04,ENE,77,9.0,11.0,81,0.00,,---,0.00,VWS V14.01,2013-06-06 03:27:00,
2013-06-05 23:32:00,73.0,66.8,30.04,East,92,10.0,11.0,81,0.00,,---,0.00,VWS V14.01,2013-06-06 03:32:00,
2013-06-05 23:37:00,73.0,66.8,30.03,East,93,10.0,11.0,81,0.00,,---,0.00,VWS V14.01,2013-06-06 03:37:00,
2013-06-05 23:42:00,73.0,66.8,30.03,ENE,78,5.0,9.0,81,0.00,,---,0.00,VWS V14.01,2013-06-06 03:42:00,
2013-06-05 23:47:00,72.8,67.0,30.03,East,80,6.0,8.0,82,0.00,,---,0.00,VWS V14.01,2013-06-06 03:47:00,
2013-06-05 23:52:00,72.6,66.8,30.03,ENE,76,7.0,9.0,82,0.00,,---,0.00,VWS V14.01,2013-06-06 03:52:00,
2013-06-05 23:57:00,72.4,66.6,30.03,East,86,7.0,7.0,82,0.00,,---,0.00,VWS V14.01,2013-06-06 03:57:00,